Location: *
(31.2983°S, 151.4094°E)
Time: 03:07:52
(UTC+00:00)

Cosmos 1782 - Pass Details

Date: 25 August 2019
Orbit: 536 x 554 km, 82.5° (Epoch: 19 September)

Event Time Altitude Azimuth Distance (km) Brightness Sun altitude
Rises 19:26:24 0° 186° (S) 2,766 6.3 -11.9°
Reaches altitude 10° 19:28:35 10° 186° (S) 1,863 5.4 -11.4°
Maximum altitude 19:32:42 89° 105° (ESE) 566 2.8 -10.5°
Drops below altitude 10° 19:36:45 10° 5° (N) 1,832 5.6 -9.7°
Sets 19:38:53 0° 5° (N) 2,715 6.5 -9.2°
